WB3EGK Weather Reports


time (UTC)temp
C
wind
direction
speed
KPH
gust
KPH
rain 1hr
cm
rain 24hr
cm
rain mn
cm
humidity
%
barometer
mb
20260503230025 13 262 6.4 8.0 0.00 0.00 0.00 1 1009.9
20260503225521 13 216 3.2 4.8 0.00 0.00 0.00 1 1009.7
20260503225016 13 284 4.8 4.8 0.00 0.00 0.00 1 1009.8
20260503224514 13 288 6.4 9.7 0.00 0.00 0.00 1 1009.8
20260503224012 13 271 1.6 3.2 0.00 0.00 0.00 1 1009.8
20260503223509 13 253 8.0 9.7 0.00 0.00 0.00 1 1009.7
20260503223005 13 293 9.7 12.9 0.00 0.00 0.00 1 1009.9
20260503222503 13 273 6.4 8.0 0.00 0.00 0.00 1 1010.0
20260503222001 13 251 4.8 8.0 0.00 0.00 0.00 1 1010.1
20260503221459 13 299 6.4 8.0 0.00 0.00 0.00 1 1009.9
20260503220956 13 240 4.8 4.8 0.00 0.00 0.00 1 1009.8
20260503220452 13 305 6.4 8.0 0.00 0.00 0.00 1 1009.8
20260503215949 13 278 11.3 12.9 0.00 0.00 0.00 1 1009.6
20260503215446 13 290 9.7 12.9 0.00 0.00 0.00 1 1009.6
20260503214943 13 290 6.4 8.0 0.00 0.00 0.00 1 1009.7
20260503214441 13 289 6.4 8.0 0.00 0.00 0.00 1 1009.7
20260503213938 14 243 8.0 9.7 0.00 0.00 0.00 1 1009.9
20260503213437 15 204 9.7 11.3 0.00 0.00 0.00 1 1009.7
20260503212932 15 240 9.7 12.9 0.00 0.00 0.00 1 1009.5
20260503212430 13 289 8.0 11.3 0.00 0.00 0.00 1 1009.4
20260503211927 13 232 4.8 8.0 0.00 0.00 0.00 1 1009.4
20260503211424 15 219 6.4 9.7 0.00 0.00 0.00 1 1009.5
20260503210919 13 269 4.8 11.3 0.00 0.00 0.00 1 1009.5
20260503210416 14 284 11.3 12.9 0.00 0.00 0.00 1 1009.4
20260503205911 15 279 11.3 14.5 0.00 0.00 0.00 1 1009.5
20260503205409 15 224 6.4 9.7 0.00 0.00 0.00 1 1009.4
20260503204904 15 218 6.4 8.0 0.00 0.00 0.00 1 1009.5
20260503204402 13 264 8.0 9.7 0.00 0.00 0.00 1 1009.6
20260503203859 15 292 16.1 20.9 0.00 0.00 0.00 1 1009.9
20260503203356 14 205 6.4 8.0 0.00 0.00 0.00 1 1010.0
20260503202853 14 286 9.7 11.3 0.00 0.00 0.00 1 1009.9
20260503202351 14 267 3.2 4.8 0.00 0.00 0.00 1 1009.8
20260503201849 15 232 9.7 11.3 0.00 0.00 0.00 1 1009.7
20260503201346 14 220 6.4 9.7 0.00 0.00 0.00 1 1009.9
20260503200844 13 280 8.0 9.7 0.00 0.00 0.00 1 1010.2
20260503200339 13 294 8.0 9.7 0.00 0.00 0.00 1 1010.0
20260503195837 13 318 11.3 12.9 0.00 0.00 0.00 1 1010.3
20260503195333 13 284 8.0 9.7 0.00 0.00 0.00 1 1010.3
20260503194830 13 309 6.4 8.0 0.00 0.00 0.00 1 1010.5
20260503194326 13 282 16.1 22.5 0.00 0.00 0.00 1 1010.4
20260503193823 13 234 8.0 9.7 0.00 0.00 0.00 1 1010.4
20260503193319 13 249 6.4 8.0 0.00 0.00 0.00 1 1010.6
20260503192815 13 259 11.3 12.9 0.00 0.00 0.00 1 1010.3
20260503192310 13 252 9.7 11.3 0.00 0.00 0.00 1 1010.8
20260503191806 13 251 8.0 9.7 0.00 0.00 0.00 1 1010.6
20260503191304 14 263 6.4 8.0 0.00 0.00 0.00 1 1010.7
20260503190800 13 302 6.4 9.7 0.00 0.00 0.00 1 1011.0
20260503190257 13 257 14.5 17.7 0.00 0.00 0.00 1 1010.8
20260503185755 13 283 8.0 11.3 0.00 0.00 0.00 1 1011.0
20260503185250 13 220 9.7 11.3 0.00 0.00 0.00 1 1010.8
20260503184744 14 228 6.4 9.7 0.00 0.00 0.00 1 1011.0
20260503184241 13 287 6.4 11.3 0.00 0.00 0.00 1 1011.0
20260503183737 13 292 4.8 8.0 0.00 0.00 0.00 1 1011.4
20260503183235 13 308 11.3 12.9 0.00 0.00 0.00 1 1011.4
20260503182733 13 284 8.0 8.0 0.00 0.00 0.00 1 1011.5
20260503182232 13 292 6.4 8.0 0.00 0.00 0.00 1 1011.3
20260503181728 13 220 8.0 9.7 0.00 0.00 0.00 1 1011.4
20260503181225 13 274 14.5 17.7 0.00 0.00 0.00 1 1011.4
20260503180721 13 345 3.2 8.0 0.00 0.00 0.00 1 1011.7
20260503180220 12 273 6.4 11.3 0.00 0.00 0.00 1 1011.6
20260503175716 12 287 8.0 11.3 0.00 0.00 0.00 1 1011.7
20260503175214 13 289 4.8 4.8 0.00 0.00 0.00 1 1011.6
20260503174709 13 193 0.0 0.0 0.00 0.00 0.00 1 1012.0
20260503174207 12 255 12.9 24.1 0.00 0.00 0.00 1 1011.9
20260503173702 12 225 8.0 9.7 0.00 0.00 0.00 1 1011.6
20260503173159 12 255 8.0 11.3 0.00 0.00 0.00 1 1012.0
20260503172655 12 212 8.0 11.3 0.00 0.00 0.00 1 1012.2
20260503172153 12 266 8.0 11.3 0.00 0.00 0.00 1 1012.0
20260503171649 12 234 4.8 8.0 0.00 0.00 0.00 1 1012.1
20260503171146 12 337 3.2 3.2 0.00 0.00 0.00 1 1012.2
20260503170643 12 271 4.8 4.8 0.00 0.00 0.00 1 1012.3
20260503170140 12 213 11.3 12.9 0.00 0.00 0.00 1 1012.1
20260503150531 8 288 6.4 8.0 0.00 0.00 0.00 1 1013.2
20260503131420 5 216 3.2 3.2 0.00 0.00 0.00 1 1013.6
20260503130916 5 277 8.0 9.7 0.00 0.00 0.00 1 1013.7
20260503130414 5 309 6.4 8.0 0.00 0.00 0.00 1 1013.7
20260503110818 1 109 1.6 1.6 0.00 0.00 0.00 1 1013.3
20260503110315 0 134 0.0 0.0 0.00 0.00 0.00 1 1013.0
20260503100241 0 89 0.0 0.0 0.00 0.00 0.00 1 1012.5
20260503090200 0 98 0.0 0.0 0.00 0.00 0.00 1 1012.9
20260503081630 0 79 0.0 0.0 0.00 0.00 0.00 1 1012.9
20260503081127 0 109 0.0 0.0 0.00 0.00 0.00 1 1012.8
20260503080623 0 70 0.0 0.0 0.00 0.00 0.00 1 1012.8
20260503080120 0 66 0.0 0.0 0.00 0.00 0.00 1 1012.9
20260503072557 0 74 0.0 0.0 0.00 0.00 0.00 1 1012.8
20260503072054 0 64 1.6 3.2 0.00 0.00 0.00 1 1012.7
20260503071551 0 71 3.2 3.2 0.00 0.00 0.00 1 1012.7
20260503071048 0 64 3.2 3.2 0.00 0.00 0.00 1 1012.8
20260503070544 0 65 0.0 0.0 0.00 0.00 0.00 1 1012.8
20260503054957 0 62 1.6 1.6 0.00 0.00 0.00 1 1013.3
20260503054453 0 58 1.6 1.6 0.00 0.00 0.00 1 1013.3
20260503053951 0 51 1.6 3.2 0.00 0.00 0.00 1 1013.1
20260503053449 0 53 1.6 1.6 0.00 0.00 0.00 1 1013.3
20260503052945 0 66 3.2 3.2 0.00 0.00 0.00 1 1013.3
20260503052443 0 61 3.2 3.2 0.00 0.00 0.00 1 1013.2
20260503051939 0 60 3.2 3.2 0.00 0.00 0.00 1 1013.3
20260503051435 0 60 0.0 0.0 0.00 0.00 0.00 1 1013.4
20260503050932 0 66 0.0 0.0 0.00 0.00 0.00 1 1013.3
20260503050428 0 66 0.0 0.0 0.00 0.00 0.00 1 1013.5
20260503045926 0 36 0.0 0.0 0.00 0.00 0.00 1 1013.4
20260503045423 1 60 0.0 0.0 0.00 0.00 0.00 1 1013.5
20260503044920 1 51 0.0 0.0 0.00 0.00 0.00 1 1013.5
20260503044417 1 60 0.0 0.0 0.00 0.00 0.00 1 1013.5
20260503043914 1 62 0.0 0.0 0.00 0.00 0.00 1 1013.5
20260503043411 1 68 0.0 0.0 0.00 0.00 0.00 1 1013.4
20260503042907 1 53 0.0 0.0 0.00 0.00 0.00 1 1013.5
20260503042404 1 48 0.0 0.0 0.00 0.00 0.00 1 1013.7
20260503041900 1 55 0.0 0.0 0.00 0.00 0.00 1 1013.5
20260503041357 1 53 0.0 0.0 0.00 0.00 0.00 1 1013.6
20260503040855 1 52 1.6 1.6 0.00 0.00 0.00 1 1013.5
20260503040352 1 57 1.6 3.2 0.00 0.00 0.00 1 1013.4
20260503035849 1 42 0.0 0.0 0.00 0.05 0.05 1 1013.7
20260503035346 1 58 0.0 0.0 0.00 0.05 0.05 1 1013.4
20260503034843 1 55 0.0 0.0 0.00 0.05 0.05 1 1013.5
20260503034340 1 58 0.0 0.0 0.00 0.05 0.05 1 1013.4
20260503033838 1 66 0.0 0.0 0.00 0.05 0.05 1 1013.6
20260503033335 1 62 0.0 0.0 0.00 0.05 0.05 1 1013.5
20260503032833 1 38 0.0 0.0 0.00 0.05 0.05 1 1013.6
20260503032332 1 41 0.0 0.0 0.00 0.05 0.05 1 1013.6
20260503031829 1 59 0.0 0.0 0.00 0.05 0.05 1 1013.7
20260503031326 1 50 0.0 0.0 0.00 0.05 0.05 1 1013.7
20260503030822 1 69 0.0 0.0 0.00 0.05 0.05 1 1013.6
20260503030319 1 66 0.0 0.0 0.00 0.05 0.05 1 1013.7
20260503025816 2 64 0.0 0.0 0.00 0.05 0.05 1 1013.7
20260503025313 2 60 0.0 0.0 0.00 0.05 0.05 1 1013.7
20260503024810 2 60 0.0 0.0 0.00 0.05 0.05 1 1013.8
20260503024307 2 60 0.0 0.0 0.00 0.05 0.05 1 1013.7
20260503023804 2 60 0.0 0.0 0.00 0.05 0.05 1 1013.9
20260503023301 2 60 0.0 0.0 0.00 0.05 0.05 1 1014.0
20260503022757 2 60 0.0 0.0 0.00 0.05 0.05 1 1013.9
20260503022257 2 58 0.0 0.0 0.00 0.05 0.05 1 1014.0
20260503021754 2 62 0.0 0.0 0.00 0.05 0.05 1 1014.1
20260503021250 2 71 0.0 0.0 0.00 0.05 0.05 1 1014.0
20260503020748 2 63 0.0 0.0 0.00 0.05 0.05 1 1013.6
20260503020245 2 23 0.0 0.0 0.00 0.05 0.05 1 1014.0
20260503015741 2 53 0.0 0.0 0.00 0.05 0.05 1 1013.8
20260503015239 2 66 0.0 0.0 0.00 0.05 0.05 1 1013.9
20260503014734 2 81 0.0 0.0 0.00 0.05 0.05 1 1013.9
20260503014233 2 75 0.0 0.0 0.00 0.05 0.05 1 1013.8
20260503013729 2 81 0.0 0.0 0.00 0.05 0.05 1 1013.8
20260503013227 2 47 0.0 0.0 0.00 0.05 0.05 1 1013.9
20260503012724 2 9 0.0 0.0 0.00 0.05 0.05 1 1013.9
20260503012221 2 49 0.0 0.0 0.00 0.05 0.05 1 1013.8
20260503011717 2 50 0.0 0.0 0.00 0.05 0.05 1 1014.0
20260503011215 2 50 0.0 0.0 0.00 0.05 0.05 1 1013.8
20260503010710 3 23 0.0 0.0 0.00 0.05 0.05 1 1013.7
20260503010208 3 29 0.0 0.0 0.00 0.05 0.05 1 1013.8
20260503005705 3 52 0.0 0.0 0.00 0.05 0.05 1 1013.8
20260503005202 3 36 0.0 0.0 0.00 0.05 0.05 1 1013.7
20260503004658 3 35 0.0 0.0 0.00 0.05 0.05 1 1013.8
20260503004157 3 347 0.0 0.0 0.00 0.05 0.05 1 1013.7
20260503003654 3 288 3.2 3.2 0.00 0.05 0.05 1 1013.7
20260503003151 3 294 3.2 3.2 0.00 0.05 0.05 1 1013.8
20260503002648 3 320 1.6 3.2 0.00 0.05 0.05 1 1013.6
20260503002144 3 339 0.0 0.0 0.00 0.05 0.05 1 1013.8
20260503001640 3 323 1.6 3.2 0.00 0.05 0.05 1 1013.7
20260503001137 3 294 1.6 1.6 0.00 0.05 0.05 1 1013.7
20260503000635 3 37 0.0 0.0 0.00 0.05 0.05 1 1013.4
20260503000132 3 307 1.6 1.6 0.00 0.05 0.05 1 1013.6
20260502235629 3 295 0.0 0.0 0.00 0.05 0.05 1 1013.7
20260502235127 3 276 3.2 3.2 0.00 0.05 0.05 1 1013.4
20260502234622 3 332 1.6 3.2 0.00 0.05 0.05 1 1013.7
20260502234120 3 283 4.8 4.8 0.00 0.05 0.05 1 1013.6
20260502233615 3 345 1.6 3.2 0.00 0.05 0.05 1 1013.5
20260502233113 3 306 6.4 8.0 0.00 0.05 0.05 1 1013.6
20260502232608 3 311 3.2 3.2 0.00 0.05 0.05 1 1013.5
20260502232106 3 269 3.2 3.2 0.00 0.05 0.05 1 1013.6
20260502231603 3 313 3.2 4.8 0.00 0.05 0.05 1 1013.6
20260502231101 4 312 3.2 3.2 0.00 0.05 0.05 1 1013.4
20260502230559 4 357 0.0 1.6 0.00 0.05 0.05 1 1013.3